Regional Weather Roundup
Issued by NWS

Home | Current Version | Previous Version | Text Only | Print | Product List | Glossary Off
Versions: 1 2 3 4 5 6 7 8 9 10 11 12 13 14 15 16 17 18 19 20 21 22 23 24 25 26 27 28 29 30 31 32 33 34 35 36 37 38 39 40 41 42 43 44 45 46 47 48 49 50

000
ASUS43 KFSD 252202
RWRSD

WEATHER ROUNDUP FOR SOUTH DAKOTA
NATIONAL WEATHER SERVICE SIOUX FALLS SD
500 PM CDT MON MAY 25 2015

NOTE: "FAIR" INDICATES FEW OR NO CLOUDS BELOW 12,000 FEET WITH NO
SIGNIFICANT WEATHER AND/OR OBSTRUCTIONS TO VISIBILITY.


SDZ001>005-009-010-012>017-252300-
NORTHWEST AND NORTH CENTRAL SOUTH DAKOTA

CITY           SKY/WX    TMP DP  RH WIND       PRES   REMARKS
FAITH            N/A     59  52  77 E14       29.94R
MOBRIDGE       CLOUDY    65  54  67 SE9       29.83S
$$

SDZ012>016-024>037-041>051-057-063-072>074-252300-
SOUTHWEST AND SOUTH CENTRAL SOUTH DAKOTA

CITY           SKY/WX    TMP DP  RH WIND       PRES   REMARKS
RAPID CTY ARPT LGT RAIN  56  54  93 N5        29.86S
PIERRE         CLOUDY    62  53  72 NE13      29.82R
CUSTER         LGT RAIN  51  46  83 NE5       29.91R
ELLSWORTH AFB  LGT RAIN  55  55 100 N10       29.86  FOG
PHILIP         CLOUDY    62  55  77 NE15      29.83R
PINE RIDGE     CLOUDY    61  49  64 CALM      29.84R
WINNER         CLOUDY    62  56  80 CALM      29.81R
$$

SDZ004>011-016>023-039-040-252300-
NORTHEAST SOUTH DAKOTA

CITY           SKY/WX    TMP DP  RH WIND       PRES   REMARKS
ABERDEEN       CLOUDY    68  51  54 NE15G23   29.82R
WATERTOWN      CLOUDY    59  54  83 N12       29.79S
BROOKINGS      PTSUNNY   63  55  77 NW12      29.78F
$$

SDZ017-020-022-023-036>040-048>070-252300-
SOUTHEAST SOUTH DAKOTA

CITY           SKY/WX    TMP DP  RH WIND       PRES   REMARKS
SIOUX FALLS    TSTM      68  59  73 NW9       29.76S
HURON          CLOUDY    66  54  65 NE14      29.80R
CHAMBERLAIN    CLOUDY    62  56  79 NE10      29.80R
MITCHELL       PTSUNNY   67  58  72 N9        29.79R
YANKTON        MOSUNNY   68  54  60 NW21G33   29.75R
$$

ABBREVIATIONS USED IN REMARKS
   TC - TEMPERATURE IN CELSIUS
  WCI - WIND CHILL INDEX
   HX - HEAT INDEX
  VSB - VISIBILITY




USA.gov is the U.S. government's official web portal to all federal, state and local government web resources and services.